User: anonymous   Login
Location: Caltech
(34.1382°N, 118.1253°W)
Time: 03:05:13
(UTC-07:00)
Language:

Cosmos 1939 Rocket - Orbit

View from above orbital plane
View from above orbital plane
View from above satellite
View from above satellite

Ground track
Ground track

The orbit data is extracted from the following two-line orbital elements,

1 19046U 88032B   16152.15497101  .00001205  00000-0  95449-4 0  9997
2 19046  97.5834 202.8177 0038241 193.4235 166.5977 15.01912451515292
Epoch (UTC): 31 May 2016 03:43:09
Eccentricity: 0.0038241
inclination: 97.5834°
perigee height: 534 km
apogee height: 587 km
right ascension of ascending node: 202.8177°
argument of perigee: 193.4235°
revolutions per day: 15.01912451
mean anomaly at epoch: 166.5977°
orbit number at epoch: 51529

The dashed part of the orbit path shows where the satellite is in the earth's shadow,  

DLR